This demonstration page uses our WeatherBlox Daily Observations layout. Learn more.

Hourly Observations for February 12, 2017

Temp ( °F °C ) Dew Point ( °F °C ) Humidity (%) Winds ( mph kmh ) Pressure ( in mb ) Visibility ( mi km ) Precip ( " mm )
12:15 am 00:15 Partly Cloudy 41 5 28 -2 61 61 N 15 24 30.3 1026 10 16.0934 0 0
12:35 am 00:35 Clear 41 4.8 28 -2.2 61 61 N 16 26 30.33 1027 10 16.0934 0 0
12:55 am 00:55 Clear 39 3.9 28 -2.5 63 63 N 10 17 30.36 1028 10 16.0934 0 0
1:15 am 01:15 Clear 38 3.5 28 -2.5 65 65 N 13 20 30.36 1028 10 16.0934 0 0
1:35 am 01:35 Clear 38 3.2 27 -3 64 64 NNW 12 19 30.39 1029 10 16.0934 0 0
1:55 am 01:55 Clear 36 2.3 26 -3.1 68 68 NNW 10 17 30.42 1030 10 16.0934 0 0
2:15 am 02:15 Clear 36 2 26 -3.2 69 69 NNW 9 15 30.42 1030 10 16.0934 0 0
2:35 am 02:35 Clear 34 1.2 26 -3.6 71 71 NNW 10 17 30.42 1030 10 16.0934 0 0
2:55 am 02:55 Clear 34 1.1 25 -3.8 70 70 NNW 10 17 30.45 1031 10 16.0934 0 0
3:15 am 03:15 Clear 34 1.2 25 -4.1 68 68 NNW 12 19 30.45 1031 10 16.0934 0 0
3:35 am 03:35 Clear 34 1.3 24 -4.3 67 67 NNW 17 28 30.45 1031 10 16.0934 0 0
3:55 am 03:55 Clear 35 1.5 24 -4.5 65 65 NNW 15 24 30.45 1031 10 16.0934 0 0
4:15 am 04:15 Clear 35 1.6 24 -4.2 66 66 N 20 31 30.45 1031 10 16.0934 0 0
4:35 am 04:35 Clear 35 1.4 25 -4.1 67 67 N 16 26 30.48 1032 10 16.0934 0 0
4:55 am 04:55 Clear 34 1 25 -3.9 70 70 NNW 15 24 30.48 1032 10 16.0934 0 0
5:15 am 05:15 Clear 33 0.7 25 -3.7 73 73 NNW 13 20 30.48 1032 10 16.0934 0 0
5:35 am 05:35 Clear 32 0.2 26 -3.6 76 76 NNW 14 22 30.5 1033 10 16.0934 0 0
5:55 am 05:55 Clear 32 0.1 25 -3.7 76 76 NNW 12 19 30.53 1034 10 16.0934 0 0
6:15 am 06:15 Clear 32 -0.1 25 -3.7 77 77 NNW 12 19 30.56 1035 10 16.0934 0 0
6:35 am 06:35 Clear 31 -0.7 25 -4 79 79 NW 8 13 30.56 1035 10 16.0934 0 0
6:55 am 06:55 Clear 30 -1.2 25 -3.9 82 82 NW 7 11 30.56 1035 10 16.0934 0 0
7:15 am 07:15 Clear 29 -1.5 24 -4.5 80 80 NNW 8 13 30.59 1036 10 16.0934 0 0
7:35 am 07:35 Sunny 29 -1.9 23 -5 80 80 NNW 7 11 30.59 1036 10 16.0934 0 0
7:55 am 07:55 Sunny 28 -2 22 -5.3 78 78 NW 6 9 30.59 1036 10 16.0934 0 0
8:15 am 08:15 Sunny 28 -2.2 23 -5.2 80 80 NNW 6 9 30.59 1036 10 16.0934 0 0
8:35 am 08:35 Sunny 30 -1.2 24 -4.5 79 79 NNW 9 15 30.59 1036 10 16.0934 0 0
8:55 am 08:55 Sunny 32 -0.2 25 -4 76 76 NNW 9 15 30.62 1037 10 16.0934 0 0
9:15 am 09:15 Sunny 32 0 24 -4.2 74 74 NNW 13 20 30.62 1037 10 16.0934 0 0
9:35 am 09:35 Sunny 33 0.4 23 -5 67 67 NNW 10 17 30.62 1037 10 16.0934 0 0
9:55 am 09:55 Sunny 34 1.2 22 -5.7 60 60 NNW 13 20 30.59 1036 10 16.0934 0 0
10:15 am 10:15 Sunny 35 1.5 21 -6.3 57 57 NNW 6 9 30.59 1036 10 16.0934 0 0
10:35 am 10:35 Sunny 37 2.5 20 -6.8 51 51 NNW 8 13 30.62 1037 10 16.0934 0 0
10:55 am 10:55 Sunny 38 3.3 18 -7.9 44 44 NNW 7 11 30.62 1037 10 16.0934 0 0
11:15 am 11:15 Sunny 39 4 17 -8.4 40 40 NNW 7 11 30.62 1037 10 16.0934 0 0
11:35 am 11:35 Sunny 41 5 15 -9.5 35 35 NNW 6 9 30.59 1036 10 16.0934 0 0
11:55 am 11:55 Sunny 42 5.7 12 -10.9 29 29 N 7 11 30.59 1036 10 16.0934 0 0
12:15 pm 12:15 Sunny 43 6.3 12 -11.3 27 27 NNW 6 9 30.56 1035 10 16.0934 0 0
12:35 pm 12:35 Sunny 45 7 10 -12.4 24 24 NW 8 13 30.56 1035 10 16.0934 0 0
12:55 pm 12:55 Sunny 44 6.9 6 -14.3 21 21 WNW 7 11 30.56 1035 10 16.0934 0 0
1:15 pm 13:15 Sunny 46 7.5 3 -16.1 17 17 NNW 8 13 30.53 1034 10 16.0934 0 0
1:35 pm 13:35 Sunny 46 7.7 3 -16.3 16 16 NNW 5 7 30.53 1034 10 16.0934 0 0
1:55 pm 13:55 Sunny 47 8.2 5 -14.8 18 18 NNW 7 11 30.5 1033 10 16.0934 0 0
2:15 pm 14:15 Sunny 46 7.8 3 -16 17 17 NNW 7 11 30.5 1033 10 16.0934 0 0
2:35 pm 14:35 Sunny 46 8 3 -16.2 16 16 N 7 11 30.5 1033 10 16.0934 0 0
2:55 pm 14:55 Sunny 47 8.4 4 -15.4 17 17 WNW 10 17 30.5 1033 10 16.0934 0 0
3:15 pm 15:15 Sunny 47 8.2 5 -15.2 17 17 NNW 6 9 30.5 1033 10 16.0934 0 0
3:35 pm 15:35 Sunny 47 8.5 6 -14.3 18 18 NW 5 7 30.5 1033 10 16.0934 0 0
3:55 pm 15:55 Sunny 48 8.7 7 -13.9 19 19 NNW 3 6 30.5 1033 10 16.0934 0 0
4:15 pm 16:15 Sunny 47 8.5 6 -14.4 18 18 NNW 3 6 30.48 1032 10 16.0934 0 0
4:35 pm 16:35 Sunny 47 8.3 6 -14.2 19 19 NW 3 6 30.48 1032 10 16.0934 0 0
4:55 pm 16:55 Sunny 46 8 7 -13.7 20 20 Calm 30.48 1032 10 16.0934 0 0
5:15 pm 17:15 Sunny 46 7.9 7 -14 20 20 Calm 30.48 1032 10 16.0934 0 0
5:35 pm 17:35 Sunny 44 6.6 7 -13.8 22 22 Calm 30.5 1033 10 16.0934 0 0
5:55 pm 17:55 Sunny 43 6.2 8 -13.6 23 23 Calm 30.5 1033 10 16.0934 0 0
6:15 pm 18:15 Clear 40 4.7 10 -12.1 29 29 Calm 30.5 1033 10 16.0934 0 0
6:35 pm 18:35 Clear 40 4.3 9 -13 27 27 S 5 7 30.5 1033 10 16.0934 0 0
6:55 pm 18:55 Clear 38 3.2 9 -12.6 31 31 Calm 30.53 1034 10 16.0934 0 0
7:15 pm 19:15 Clear 34 1.2 10 -12.3 36 36 S 3 6 30.53 1034 10 16.0934 0 0
7:35 pm 19:35 Clear 33 0.7 11 -11.7 39 39 Calm 30.53 1034 10 16.0934 0 0
7:55 pm 19:55 Clear 34 1.1 10 -12.3 36 36 SSW 5 7 30.53 1034 10 16.0934 0 0
8:15 pm 20:15 Clear 34 1.1 8 -13.1 34 34 SSW 7 11 30.5 1033 10 16.0934 0 0
8:35 pm 20:35 Clear 33 0.8 8 -13.2 35 35 S 7 11 30.5 1033 10 16.0934 0 0
8:55 pm 20:55 Clear 33 0.7 8 -13.4 34 34 S 5 7 30.5 1033 10 16.0934 0 0
9:15 pm 21:15 Clear 32 0 8 -13.3 36 36 S 5 7 30.53 1034 10 16.0934 0 0
9:35 pm 21:35 Clear 32 -0.2 8 -13.3 37 37 SSW 3 6 30.53 1034 10 16.0934 0 0
9:55 pm 21:55 Clear 30 -1 9 -13 40 40 S 5 7 30.53 1034 10 16.0934 0 0
10:15 pm 22:15 Clear 32 -0.2 8 -13.2 37 37 S 7 11 30.5 1033 10 16.0934 0 0
10:35 pm 22:35 Clear 32 -0.2 9 -12.7 39 39 SSW 7 11 30.5 1033 10 16.0934 0 0
10:55 pm 22:55 Clear 32 0 10 -12.3 39 39 S 7 11 30.48 1032 10 16.0934 0 0
11:15 pm 23:15 Clear 31 -0.4 10 -12.1 41 41 SSW 7 11 30.5 1033 10 16.0934 0 0
11:35 pm 23:35 Clear 31 -0.7 11 -11.6 44 44 SSW 7 11 30.5 1033 10 16.0934 0 0
11:55 pm 23:55 Clear 30 -1.2 12 -11.3 47 47 SSW 6 9 30.5 1033 10 16.0934 0 0

Powered by AerisWeather